Regional Weather Roundup
Issued by NWS Cleveland, OH

Home | Current Version | Previous Version | Graphics & Text | Print | Product List | Glossary On
Versions: 1 2 3 4 5 6 7 8 9 10 11 12 13 14 15 16 17 18 19 20 21 22 23 24 25 26 27 28 29 30 31 32 33 34 35 36 37 38 39 40 41 42 43 44 45 46 47 48 49 50
000
ASUS41 KCLE 240912
RWRCLE
OHIO REGIONAL WEATHER ROUNDUP
NATIONAL WEATHER SERVICE WILMINGTON, OH
500 AM EDT THU MAY 24 2018

NOTE: "FAIR" INDICATES FEW OR NO CLOUDS BELOW 12,000 FEET WITH NO
SIGNIFICANT WEATHER AND/OR OBSTRUCTIONS TO VISIBILITY.

OHZ001>008-015>018-024>027-034-035-043-044-241000-
   NORTHWEST OHIO

CITY           SKY/WX    TMP DP  RH WIND       PRES   REMARKS
DEFIANCE       FAIR      53  50  89 CALM      30.20S
FINDLAY        FAIR      54  51  90 CALM      30.19S
TOLEDO EXPRESS FAIR      54  53  97 CALM      30.20R
TOLEDO EXEC    FAIR      56  50  80 CALM      30.20S
LIMA           FAIR      55  50  83 CALM      30.20S
$$

OHZ009>014-019>023-028>033-038-089-241000-
   NORTHEAST OHIO

CITY           SKY/WX    TMP DP  RH WIND       PRES   REMARKS
CLE-HOPKINS    FAIR      53  50  89 CALM      30.22S
CLE-LAKEFRONT  FAIR      58  51  78 S5        30.19S
CUY CO. ARPT   NOT AVBL
LORAIN-ELYRIA  FAIR      52  47  83 NE7       30.21S
ASHTABULA      FAIR      48  48 100 CALM      30.22R
AKRON-CANTON   FAIR      54  49  83 CALM      30.21S
WOOSTER        FAIR      49  47  93 CALM      30.22S
MANSFIELD      FAIR      52  50  93 CALM      30.22R
YOUNGSTOWN     FAIR      50  48  93 CALM      30.21R
$$

OHZ042-051>053-060>062-070>072-077>081-241000-
  SOUTHWEST OHIO

CITY           SKY/WX    TMP DP  RH WIND       PRES   REMARKS
CINC-COVINGTON FAIR      61  56  83 CALM      30.17S
CINC-LUNKEN    FAIR      56  56 100 CALM      30.18S FOG
HAMILTON       FAIR      56  56 100 CALM      30.19R
DAYTON         FAIR      56  51  84 E5        30.20S
WRIGHT-PAT AFB FAIR      58  54  86 CALM      30.19S
DAYTON GENERAL FAIR      58  52  80 NE6       30.18S
WILMINGTON     FAIR      57  55  93 NE6       30.19S
$$

OHZ036-037-039>041-045>050-054>059-063>069-073>076-082>088-241000-
  CENTRAL AND SOUTHEAST OHIO

CITY           SKY/WX    TMP DP  RH WIND       PRES   REMARKS
COLUMBUS       FAIR      57  50  77 N5        30.19R
OSU AIRPORT    FAIR      55  50  83 CALM      30.20R
BOLTON FIELD   FAIR      54  53  96 N3        30.20S
RICKENBACK AFB FAIR      57  53  89 MISG      30.19S
NEWARK         FAIR      53  51  93 CALM      30.20S
MARION         FAIR      52  51  97 CALM      30.21R
LANCASTER      FAIR      53  52  96 CALM      30.20S FOG
ZANESVILLE     FAIR      52  49  89 CALM      30.20S
NEW PHILLY     FOG       51  51 100 CALM      30.22S VSB 1/4
$$



USA.gov is the U.S. government's official web portal to all federal, state and local government web resources and services.